This demonstration page uses our WeatherBlox Daily Observations layout. Learn more.

39.29038, -76.61219

Hourly Observations for July 8, 2018

Temp ( °F °C ) Dew Point ( °F °C ) Humidity (%) Winds ( mph kmh ) Pressure ( in mb ) Visibility ( mi km ) Precip ( " mm )
12:54 am 00:54 undefined 71 21.7 55 12.8 57 57 undefined N/A 30.34 1027 N/A 0 0
1:54 am 01:54 undefined 71 21.7 54 12.2 55 55 undefined N/A 30.32 1027 N/A 0 0
2:54 am 02:54 undefined 70 21.1 56 13.3 61 61 undefined N/A 30.32 1027 N/A 0 0
3:54 am 03:54 undefined 69 20.6 57 13.9 66 66 undefined N/A 30.31 1027 N/A 0 0
4:54 am 04:54 undefined 68 20 57 13.9 68 68 undefined N/A 30.31 1027 N/A 0 0
5:54 am 05:54 undefined 67 19.4 57 13.9 71 71 undefined N/A 30.32 1027 N/A 0 0
6:54 am 06:54 undefined 68 20 57 13.9 68 68 undefined N/A 30.35 1028 N/A 0 0
7:54 am 07:54 undefined 71 21.7 55 12.8 57 57 undefined N/A 30.37 1029 N/A 0 0
8:54 am 08:54 undefined 74 23.3 52 11.1 46 46 undefined N/A 30.38 1029 N/A 0 0
9:54 am 09:54 undefined 76 24.4 52 11.1 43 43 undefined N/A 30.38 1029 N/A 0 0
10:54 am 10:54 undefined 79 26.1 51 10.6 38 38 undefined N/A 30.37 1029 N/A 0 0
11:54 am 11:54 undefined 81 27.2 46 7.8 29 29 undefined N/A 30.36 1028 N/A 0 0
12:54 pm 12:54 undefined 82 27.8 47 8.3 29 29 undefined N/A 30.34 1027 N/A 0 0
1:54 pm 13:54 undefined 83 28.3 47 8.3 28 28 undefined N/A 30.33 1027 N/A 0 0
2:54 pm 14:54 undefined 84 28.9 48 8.9 29 29 undefined N/A 30.32 1027 N/A 0 0
3:54 pm 15:54 undefined 85 29.4 48 8.9 28 28 undefined N/A 30.3 1026 N/A 0 0
4:54 pm 16:54 undefined 84 28.9 49 9.4 30 30 undefined N/A 30.29 1026 N/A 0 0
5:54 pm 17:54 undefined 83 28.3 52 11.1 34 34 undefined N/A 30.29 1026 N/A 0 0
6:54 pm 18:54 undefined 82 27.8 52 11.1 35 35 undefined N/A 30.28 1026 N/A 0 0
7:54 pm 19:54 undefined 81 27.2 51 10.6 35 35 undefined N/A 30.28 1025 N/A 0 0
8:54 pm 20:54 undefined 80 26.7 52 11.1 38 38 undefined N/A 30.28 1025 N/A 0 0
9:54 pm 21:54 undefined 78 25.6 58 14.4 50 50 undefined N/A 30.29 1026 N/A 0 0
10:54 pm 22:54 undefined 75 23.9 56 13.3 52 52 undefined N/A 30.3 1026 N/A 0 0
11:54 pm 23:54 undefined 74 23.3 54 12.2 50 50 undefined N/A 30.29 1026 N/A 0 0

Powered by AerisWeather